CAPE
2144 2112 1912 1588 1453 1410 1252 1177 1157 997 874 898 809 839 1551 2058 1942 1863 1345 949 1848 1763 2139 1951 2449 2446 2953 2929 2862 2893 3065 2944 3128 2955 3314 3236 3087 3263 2811 2937 2888 3014 3553 3217 2850 2848 3026 2630 2614 3574 3579 2981 2928 2985 3066 2872 2552 2496 2668 2666 2610 2375 2160 2000 1921 1934 2044 2460 2740 2959 3113 3067 3058 3034 2902 3016 3134 2977 2956 3040 3149 3238 3288 3294 3297
2246 2223 2132 1862 1492 1423 1310 1251 1314 1154 972 967 956 746 962 1662 1932 1824 1664 1038 976 2093 1910 2123 2214 2197 2785 2875 2743 2796 2849 2955 3138 2964 3111 3103 2989 3388 3008 2857 2798 2570 2951 3066 3305 3144 3378 2803 2661 2928 3543 3278 3384 3268 3053 2959 3026 2674 2737 2795 2633 2594 2465 2461 2458 2501 2505 2596 2934 3181 3297 3457 3283 3103 3228 3072 2837 2940 3123 3154 3211 3305 3402 3500 3525
2331 2288 2256 2077 1723 1500 1354 1358 1434 1336 1120 1097 1099 876 878 1180 1702 1708 1730 1485 768 1588 1968 2193 2157 2179 2275 2685 2599 2595 2722 2710 2932 2931 2954 3165 2939 3082 3168 3308 2838 2620 2734 2758 2798 2911 3334 3468 3023 3204 3633 3210 3148 3254 3178 2989 2897 2867 2788 2882 3000 2980 2877 2892 2838 2809 2891 2939 3127 3251 3287 3176 3223 3174 3089 3156 3268 3343 3282 3241 3244 3330 3525 3624 3491
2542 2455 2386 2202 1936 1649 1473 1458 1541 1501 1301 1230 1274 1121 985 1073 1539 1585 1624 1539 1153 885 2048 2070 2238 2222 2187 2318 2506 2438 2604 2588 2613 2815 2848 2982 3030 3006 2850 3169 3056 2950 2972 3027 2911 2902 2907 3186 3447 3358 3495 3538 3363 3093 3108 3104 3039 2960 2921 3033 3051 3049 3049 3262 3045 3067 3138 3123 2560 2754 3007 3291 3428 3502 3552 3532 3418 3274 3207 3170 3315 3470 3583 3541 3372
2699 2631 2521 2386 2118 1894 1691 1567 1582 1624 1499 1348 1418 1369 1206 1180 1478 1610 1492 1434 1236 827 1742 1900 2272 2322 2307 2354 2386 2492 2577 2619 2626 2675 2888 2866 2964 2972 2899 2739 3086 3083 3090 3233 3778 3218 3113 2973 3035 3377 3378 3324 3379 3380 3227 3014 2922 2845 2866 2754 2686 2702 2588 2628 2541 2710 2438 2303 2546 3191 3466 3656 3766 3628 3444 3358 3408 3443 3465 3542 3596 3495 3323 3518 3791
2959 2846 2666 2498 2310 2152 1950 1769 1670 1655 1624 1475 1470 1505 1481 1394 1442 1676 1510 1406 1265 931 1334 1747 1976 2382 2388 2484 2475 2402 2577 2641 2625 2607 2743 2828 2909 2952 2969 3031 2831 3015 3191 3231 3478 3413 3284 3292 3117 3040 3218 3334 3332 3292 3266 3256 3216 3225 3197 3164 2943 2716 2521 2416 2451 2535 2727 2889 3038 3211 3541 3588 3524 3480 3478 3475 3469 3538 3594 2908 2882 3211 3730 4261 4416
2987 2986 2883 2645 2419 2260 2209 1950 1782 1716 1699 1576 1540 1562 1588 1615 1513 1616 1564 1355 1331 1286 1417 1562 1774 2112 2357 2445 2565 2412 2388 2676 2561 2525 2566 2693 2784 2891 2942 2984 3133 2874 2846 3119 3302 3437 3417 3402 3372 3191 3057 3074 3130 3209 3216 3157 3086 3128 3192 3201 3130 3245 3482 3500 3631 3708 3730 3836 3816 3711 3615 3535 3393 3482 3653 3564 3442 3142 3016 3159 3364 4110 4766 4171 3828
3026 2981 2989 2855 2608 2339 2311 2174 1953 1790 1714 1682 1681 1656 1692 1783 1646 1564 1590 1354 1283 1454 1559 1673 1736 1950 2181 2294 2448 2470 2234 2457 2548 2367 2379 2552 2707 2791 2899 2950 2960 3021 2940 2856 2896 3037 3213 3319 3356 3324 3159 3096 3112 3103 3042 3051 3290 3354 3348 3350 3264 3204 3167 3207 3285 3334 3331 3322 3369 3531 3680 3682 3406 3221 3194 3231 3264 3312 3363 3805 4449 4436 4265 3915 3627
3078 3034 3004 2959 2814 2550 2386 2324 2160 1952 1908 1894 1884 1816 1764 1818 1742 1547 1490 1386 1180 1446 1575 1825 1863 2005 2186 2176 2208 2328 2254 2086 2325 2360 2264 2355 2496 2660 2748 2856 2933 2891 2801 2816 2892 2896 2928 2970 3000 3049 3144 3547 3252 3116 3101 2989 3025 3287 3399 3414 3449 3540 3525 3524 3525 3540 3610 3712 3695 3572 3467 3486 3582 3634 3436 3246 3268 3420 3567 4528 4218 4160 4026 3815 3610
3160 3109 3090 3029 2892 2694 2477 2383 2275 2154 2043 1992 1943 1878 1766 1758 1772 1583 1385 1336 1162 1364 1554 1796 1978 2064 2254 2242 2114 2162 2251 2075 2087 2225 2330 2357 2408 2460 2566 2629 2749 2856 2796 2626 2576 2694 2773 2883 2976 3628 3124 3225 3154 3099 3072 3075 3088 3018 3021 3206 3276 3325 3374 3416 3530 3594 3628 3704 3807 3881 3863 3677 3443 3267 3268 3334 3250 3280 4000 4155 4059 4008 3922 3880 3666
3285 3245 3164 3102 3004 2866 2639 2442 2270 2218 2172 2086 2016 1920 1773 1676 1706 1643 1398 1294 1237 1254 1566 1702 1914 2064 2227 2328 2169 2087 2263 2322 2106 2026 2198 2331 2447 2504 2509 2484 2502 2704 2852 2785 2603 2532 2562 2587 2627 3440 4311 2935 2906 2967 2925 2860 2841 2999 3027 3220 3354 3166 3222 3366 3415 3536 3750 3836 3801 3821 3822 3778 3688 3638 3542 3479 3223 3432 3904 4039 3987 4001 4047 3836 3559
3380 3283 3227 3165 3092 2981 2840 2562 2280 2235 2222 2166 2038 1963 1838 1656 1622 1631 1530 1521 1454 1287 1434 1718 1828 2002 2160 2362 2304 2153 2167 2357 2395 2159 2098 2204 2327 2510 2528 2530 2481 2489 2633 2787 2744 2572 2475 2481 2479 2435 2457 2755 2792 2697 2748 2720 2616 2588 2728 2858 3170 3598 3287 3236 3335 3569 3907 4056 4128 4109 4022 3948 3836 3615 3464 3242 2871 2878 3418 3737 3983 4181 4067 3677 3406
3373 3320 3283 3186 3162 3036 2903 2634 2378 2331 2305 2240 2126 2092 2054 1741 1581 1854 1878 1786 1704 1528 1370 1666 1845 1921 2072 2344 2459 2356 2261 2272 2522 2461 2274 2246 2305 2332 2380 2444 2550 2517 2428 2412 2464 2506 2428 2323 2334 2402 2361 3162 3651 2511 2338 2361 2392 2408 2398 2482 2667 3042 3788 3837 3686 3518 3258 2928 2591 2252 2238 2436 2635 2718 2720 2494 2886 3307 3623 4016 4201 4047 3747 3456 3171
3452 3385 3314 3284 3212 3119 2994 2774 2586 2455 2459 2411 2262 2171 2175 2044 1728 1800 2060 2005 1918 1786 1557 1482 1880 1964 2055 2253 2576 2626 2537 2446 2519 2658 2556 2432 2431 2399 2304 2301 2340 2561 2590 2462 2372 2385 2462 2417 2307 2252 2289 2307 2420 2577 2226 2030 2019 2119 2208 2194 2229 2364 2528 2612 2723 2620 2317 2024 1916 1929 1833 1810 1954 1922 2086 2675 3289 3780 4276 4306 3966 3681 3311 3158 2926
3482 3442 3351 3293 3210 3130 2995 2826 2778 2619 2581 2570 2470 2299 2208 2210 2004 1781 2006 2123 2031 1943 1804 1584 1809 2063 2114 2186 2467 2782 2844 2787 2680 2740 2788 2672 2601 2614 2421 2420 2308 2308 2610 2740 2647 2516 2437 2455 2413 2328 2252 2215 2115 2394 2543 2266 1996 1931 1940 1992 1997 2016 2113 2240 2314 2358 2361 2342 2459 2468 2322 2125 1911 1785 2146 2535 3689 4187 4402 4019 3691 3472 3281 2570 1982
3339 3434 3348 3388 3314 3224 3130 3073 2966 2807 2719 2688 2632 2473 2279 2209 2176 1935 1825 2097 2130 2041 1976 1780 1700 2029 2173 2185 2265 2572 2902 2960 2898 2838 2876 2875 2795 2767 2663 2596 2592 2460 2382 2618 2878 2820 2671 2533 2440 2357 2245 2152 2025 1861 2729 2820 2500 2271 2189 2091 1990 1972 2044 2176 2312 2388 2559 2921 3045 2985 2698 2519 2549 2575 2617 2777 3722 3858 3801 3743 3423 3141 2887 1992 1408
3132 3402 3391 3498 3431 3379 3259 3174 3103 2985 2866 2776 2704 2623 2430 2234 2201 2090 1864 1887 2160 2105 2077 1974 1798 1812 2106 2232 2236 2345 2698 3037 3047 2958 2900 2956 2990 2925 2860 2791 2852 2768 2663 2585 2689 2951 3002 2876 2728 2612 2506 2379 2260 2090 1870 2702 3265 2961 2784 2821 2862 2791 2698 2793 2732 2868 3464 3572 3517 3399 3359 3273 3148 3038 2990 2949 3216 3465 3604 3400 3134 3201 2317 1302 1337
2979 3409 3441 3547 3524 3484 3381 3277 3220 3149 3025 2897 2778 2702 2546 2305 2172 2178 1997 1824 2034 2200 2161 2094 1963 1810 1802 2112 2343 2306 2408 2831 3164 3120 2982 2920 2999 3048 3014 2963 2978 2894 2770 2722 2695 2941 3180 3817 3955 2919 2795 2689 2576 2364 2385 2159 2375 3271 3632 3697 3895 3968 3942 4102 4247 4198 4233 4250 4246 4166 4005 3905 3809 3612 3351 3156 3091 3240 3327 3141 3158 3006 1447 920 1501
2671 3352 3472 3539 3573 3586 3526 3406 3322 3267 3161 3020 2896 2796 2659 2428 2209 2227 2132 1880 1816 2166 2285 2204 2130 2014 1837 1763 2030 2418 2451 2540 2893 3118 3089 2925 2865 2939 3002 3024 2983 2941 2805 2652 2535 2427 2412 3175 4285 4138 3182 2906 2770 2603 2519 2492 2346 2174 2727 3689 4196 4408 4505 4515 4593 4503 4221 3850 3547 3606 3650 3819 3975 4009 3838 3478 3244 3186 3246 3227 3245 3138 1872 1099 1646
2591 2864 3497 3563 3632 3634 3666 3580 3462 3384 3298 3147 2982 2891 2785 2544 2272 2216 2235 2046 1786 1922 2326 2310 2253 2202 2138 1987 1826 1852 2134 2588 2705 2830 2981 2969 2904 2838 2852 2927 2938 2939 2903 2789 2570 2332 2195 2210 2479 2675 3226 3490 3246 3191 3165 3027 2841 2673 2525 2422 2629 2974 3341 3803 3958 3879 3681 3220 3217 3252 3360 3377 3539 3738 3804 3547 3247 3410 3470 3504 3452 3300 2415 1332 1735
2235 2518 3453 3574 3640 3717 3762 3746 3654 3545 3446 3309 3094 2924 2865 2737 2428 2237 2246 2170 1967 1870 2206 2358 2349 2319 2308 2289 2132 2002 1912 2516 2526 2749 2794 2836 2869 2849 2830 2801 2866 2920 2923 2876 2759 2579 2367 2206 2125 2208 2483 2860 3143 3259 3310 3338 3336 3308 3203 3068 2883 2755 3068 3378 3509 4614 4024 3854 3823 3745 3514 3318 3368 3424 3568 3664 3728 3826 3900 3984 3957 3578 2260 1645 1759
1919 2455 3452 3565 3630 3769 3854 3868 3828 3748 3692 3538 3293 3031 2908 2853 2676 2368 2216 2160 2077 1995 2209 2430 2441 2448 2440 2444 2374 2324 2202 2379 2453 2626 2707 2725 2767 2795 2828 2866 2877 2913 2889 2868 2829 2737 2622 2477 2352 2200 2141 2327 2771 3015 3086 3194 3289 3288 3300 3357 3390 3360 3300 3584 3698 4288 4417 4169 4166 4188 4103 4010 3958 3876 3868 3942 3919 3878 3890 3998 3571 2489 1548 1824 1694
2191 2519 3304 3541 3628 3758 3880 3953 3959 3959 3900 3801 3551 3247 3006 2912 2822 2576 2295 2139 2047 2007 2193 2605 2620 2650 2678 2634 2548 2502 2480 2363 2547 2561 2590 2594 2676 2734 2789 2852 2891 2887 2866 2860 2844 2829 2768 2685 2594 2504 2400 2272 2348 2720 3006 3067 3108 3201 3254 3299 3579 3800 3798 3766 3765 3768 3771 3822 3905 4041 3953 3838 3699 3727 3820 3618 2598 2555 3032 2540 1797 1531 1777 1773 1805
2392 2647 3228 3483 3566 3696 3852 4021 4096 4078 4002 3942 3822 3552 3233 3030 2922 2721 2502 2248 2053 1957 1967 2607 2806 2808 2871 2846 2769 2638 2600 2663 2604 2578 2584 2566 2529 2607 2699 2782 2833 2846 2844 2844 2845 2849 2843 2828 2774 2718 2716 2690 2564 2452 2622 2914 3039 3113 3181 3250 3376 3686 3840 3859 3775 3716 3677 3641 3621 3530 3425 3408 3627 3674 3600 3020 2659 2467 2396 2168 1825 1690 1820 1840 1803
2710 2829 3275 3464 3500 3652 3849 4044 4162 4142 4069 4021 3973 3811 3588 3451 3190 2885 2623 2399 2148 1966 1920 2209 2766 2902 2936 2961 2929 2845 2723 2766 2787 2713 2646 2673 2600 2524 2572 2668 2742 2784 2810 2837 2841 2858 2877 2911 2956 2963 2916 2915 2982 2940 2729 2575 2739 2921 3021 3098 3216 3397 3606 3707 3727 3699 3644 3596 3533 3404 3171 3103 3476 3612 3171 2960 2802 2656 2541 2129 1738 1829 1870 1891 1762
2932 2974 3323 3467 3497 3636 3874 4034 4150 4156 4116 4093 4058 3959 3854 3755 3525 3222 2832 2525 2270 2066 1942 1944 2325 2721 2868 2900 2934 2944 2896 2838 2843 2840 2833 2871 2820 2705 2610 2573 2628 2705 2783 2811 2856 2892 3023 3163 3217 3261 3296 3296 3195 3120 3093 3045 2923 2803 2890 3007 3068 3170 3339 3437 3500 3508 3487 3458 3366 3234 3033 2869 3478 3497 3059 2860 2906 2866 2456 1867 1740 2013 2006 1943 1813
3159 3117 3352 3475 3507 3606 3840 3986 4111 4138 4101 4098 4122 4094 3963 3929 3782 3575 3254 2806 2465 2203 2008 1940 1968 2178 2542 2744 2821 2878 2900 2908 2913 2851 2833 2856 2834 2892 2830 2724 2638 2602 2737 2831 2862 2916 3022 3129 3278 3416 3503 3542 3553 3462 3255 3160 3213 3220 3230 3272 3239 3187 3190 3239 3289 3296 3303 3255 3157 3006 2676 2989 3082 3126 3025 3054 3072 2690 2039 1670 1930 1806 1710 1704 1644
3405 3273 3426 3484 3506 3560 3729 3890 4038 4128 4111 4038 4085 4160 4115 4081 4007 3818 3586 3277 2878 2459 2222 2080 1987 1938 1993 2266 2552 2771 2824 2840 2979 2899 2847 2751 2794 2868 2896 2835 2746 2665 2625 2734 2860 2914 2948 2996 3041 3100 3175 3266 3344 3404 3417 3424 3414 3323 3402 3508 3595 3558 3479 3396 3316 3194 3108 2930 2654 2864 3141 3183 3248 3184 3034 2780 2371 1816 1534 1870 1850 1530 1531 1473 1536
3532 3431 3505 3506 3503 3506 3603 3724 3890 4049 4100 4058 4044 4171 4216 4210 4171 3994 3781 3584 3232 2874 2550 2354 2216 2054 1906 1880 1972 2213 2519 2646 3200 2819 2710 2669 2606 2602 2644 2712 2770 2773 2751 2769 2782 2805 2840 2892 2942 2971 2981 2970 2959 2985 3094 3202 3344 3561 3617 3700 3728 3675 3600 3470 3221 2846 2527 2412 2679 3054 3231 3278 3289 3114 2575 1980 1545 1504 1710 1842 1595 1451 1516 1450 1406
3625 3527 3607 3566 3529 3450 3483 3593 3751 3885 4030 4037 4022 4158 4335 4325 4280 4145 4038 3840 3600 3227 2862 2642 2468 2323 2132 1980 1877 1892 2037 2331 2878 3216 2800 2660 2605 2545 2534 2562 2687 2791 2815 2907 2902 2886 2848 2817 2822 2869 2894 2872 2815 2775 2781 2847 2992 3150 3534 3650 3682 3613 3489 3232 2966 2807 2592 2547 2864 3134 3159 3093 2969 2753 2184 1718 1551 1604 1726 1646 1490 1477 1416 1158 992
3706 3586 3689 3594 3491 3435 3399 3494 3625 3749 3888 3976 3978 4123 4386 4431 4371 4278 4099 3961 3804 3536 3128 2910 2695 2502 2371 2268 2098 1944 1965 2099 2398 3282 3294 2928 2757 2704 2653 2674 2699 2811 2890 2996 3005 2969 2974 2946 2917 2884 2878 2853 2818 2743 2643 2599 2621 2806 3014 3283 3339 3212 3124 3007 2887 2666 2446 2636 2976 3158 3133 3033 2849 2461 2004 1728 1656 1692 1736 1422 1419 1558 1296 992 873
3867 3688 3705 3608 3470 3406 3431 3481 3573 3649 3774 3925 4015 4098 4293 4447 4404 4304 4176 3999 3791 3780 3469 3132 2938 2843 2717 2556 2475 2312 2226 2272 2396 2910 3296 3410 3305 3087 2967 2869 2872 2852 2965 3029 3108 3060 3011 2991 2996 2960 2895 2919 2837 2823 2804 2788 2672 2581 2652 2779 2916 2913 2876 2787 2603 2328 2297 2537 2756 2756 2769 2744 2499 2246 1940 1759 1808 1905 1706 1533 1635 1462 1075 917 811
4444 3860 3509 3459 3450 3452 3484 3603 3619 3640 3659 3806 4069 4149 4176 4223 4333 4328 4202 4050 3830 3895 3676 3388 3210 3232 3131 2945 2934 2826 2591 2543 2704 2766 3074 3248 3287 3259 3150 3089 3016 3014 3012 3053 3092 3132 3131 3098 3068 3052 3032 3000 2976 2928 2927 2841 2646 2510 2475 2497 2528 2562 2531 2495 2355 2270 2401 2478 2510 2496 2398 2361 2212 2019 1861 1856 2002 1965 1644 1674 1650 1454 1155 921 805
4043 3771 3537 3480 3275 3203 3315 3378 3233 3222 3431 3655 4010 4122 4067 4104 4194 4283 4241 4082 3870 3886 3762 3505 3496 3417 3364 3290 3319 3424 3148 2842 2842 2887 2911 3145 3231 3377 3356 3303 3270 3271 3204 3196 3162 3172 3171 3180 3193 3207 3194 3122 3058 2976 2956 2866 2663 2601 2692 2770 2783 2773 2708 2616 2527 2478 2329 2316 2311 2341 2234 2198 2113 2017 1984 2056 2041 2060 2005 1852 1773 1605 1254 949 846
3153 3424 3564 3355 3212 3102 2980 2718 2627 2587 2693 2922 3320 3436 3874 4070 4115 4170 4221 4139 3987 3920 3848 3747 3696 3607 3600 3544 3487 3691 3581 3398 3066 3067 3125 3210 3353 3411 3456 3477 3451 3364 3346 3385 3407 3390 3359 3334 3329 3327 3296 3236 3143 3026 3015 2959 2952 2952 3005 3080 3042 2884 2790 2684 2632 2590 2459 2426 2440 2438 2381 2315 2241 2166 2139 2163 2132 2073 1951 1718 1527 1382 1190 937 884
2915 3027 3181 3344 3236 2930 2864 2903 2770 2557 2625 2656 2556 3155 3496 3545 3665 4113 4100 4130 4119 3978 3865 3800 3803 3754 3720 3732 3633 3898 3829 3585 3356 3146 3257 3230 3242 3408 3426 3439 3422 3484 3553 3501 3485 3501 3476 3490 3481 3514 3479 3447 3372 3293 3259 3250 3095 3119 3006 2872 2772 2825 2771 2661 2512 2388 2272 2300 2398 2361 2358 2235 2203 2222 2143 2105 1967 1930 1790 1691 1576 1349 1209 997 826
2787 2798 2865 3064 3189 2959 2698 2790 2659 2630 2302 2304 2779 2905 2644 3280 3653 3640 4039 4154 4158 4030 3927 3862 3800 3810 3774 3744 3606 3882 3922 3796 3531 3324 3436 3456 3466 3440 3443 3453 3532 3600 3625 3582 3509 3522 3530 3529 3542 3550 3551 3573 3510 3366 3260 3155 3074 3001 2627 2420 2432 2714 2698 2550 2465 2440 2328 2261 2281 2196 2125 2101 2113 2112 1945 1830 1708 1548 1462 1412 1329 1146 914 768 711
2546 2511 2732 2790 2963 3120 3069 3014 2939 2844 2684 2573 2648 2565 2609 2646 2850 3206 3556 3812 4141 4022 3973 3880 3742 3644 3656 3585 3486 3707 3771 3802 3900 4036 3983 3904 3797 3730 3637 3612 3622 3634 3662 3665 3654 3690 3699 3726 3691 3706 3716 3552 3428 3296 3057 3020 2953 2689 2260 1973 2066 2268 2546 2518 2454 2450 2338 2176 2306 2129 2014 2074 1982 1842 1778 1656 1491 1428 1347 1223 1041 839 728 766 763
2085 2344 2585 2600 2540 2630 2740 2875 2746 2550 2449 2380 2451 2635 2604 2628 2870 2966 3144 3552 3924 4091 3996 3862 3716 3583 3462 3307 3403 3574 3622 3710 3773 3804 3870 3858 3862 3848 3879 3849 3835 3828 3838 3857 3825 3817 3768 3777 3651 3576 3508 3402 3305 3293 3191 3033 2650 2339 2378 2244 2296 2405 2460 2476 2471 2299 2287 2052 1814 1793 1978 1896 1830 1740 1661 1477 1116 861 859 881 901 785 812 867 713
1828 2154 2389 2525 2680 2718 2652 2717 2742 2489 2348 2396 2428 2644 2857 2774 2956 2852 2984 3218 3636 4044 3944 3881 3753 3598 3380 3202 3392 3588 3700 3735 3815 3833 3803 3813 3834 3836 3858 3844 3848 3884 3910 3898 3862 3839 3834 3777 3692 3609 3500 3414 3316 3125 3070 2965 2924 2703 2357 2303 2394 2414 2369 2189 2124 2069 2168 2194 2061 1844 1645 1679 1594 1387 1152 813 630 631 732 829 930 854 858 735 570
1656 1856 2001 2355 2564 2668 2615 2469 2283 2091 2192 2188 2342 2421 2320 2580 2598 2653 2596 3081 3435 3880 3898 3799 3730 3572 3380 3298 3357 3575 3667 3739 3767 3810 3813 3842 3835 3822 3811 3808 3839 3859 3825 3813 3817 3843 3818 3717 3517 3357 3381 3353 3289 3185 3156 3078 3030 3007 2878 2839 2739 2663 2659 2513 2348 2205 2234 1996 1703 1551 1406 1280 1140 1003 979 884 795 766 774 799 749 752 727 592 465
1246 1406 1885 2165 2263 2449 2388 2108 1995 1991 2240 2152 2056 2045 2175 2390 2486 2474 2389 2791 3300 3758 3685 3650 3636 3620 3619 3640 3608 3557 3498 3598 3669 3731 3743 3743 3746 3761 3765 3793 3793 3741 3704 3678 3630 3543 3399 3272 3296 3312 3347 3326 3270 3220 3164 3082 3014 2961 2483 1812 2082 2359 2384 2303 2230 1922 1429 1674 1352 1344 1139 1192 1297 1230 1007 856 832 896 921 819 762 670 591 538 438
786 1279 1705 2016 2054 2000 1932 1971 2008 2031 2030 2040 2178 2240 2414 2405 2652 2856 3062 3244 3475 3626 3643 3587 3566 3600 3680 3713 3692 3633 3564 3511 3466 3544 3611 3611 3640 3657 3678 3654 3627 3536 3466 3379 3293 3233 3229 3256 3317 3346 3314 3218 3152 3144 3197 3158 2816 2608 2423 2121 2100 1608 1854 2017 1991 1977 2000 1724 1329 1188 1231 1340 1258 1079 973 954 932 877 872 844 811 642 455 514 442
860 1118 1307 1437 1492 1505 1750 1990 2131 2137 2081 2052 2148 2295 2333 2046 2224 2756 2921 2973 3318 3870 4155 3925 3816 3758 3717 3644 3613 3600 3560 3513 3439 3357 3314 3291 3286 3291 3307 3267 3257 3258 3210 3145 3106 3099 3130 3150 3186 3201 3220 3181 3085 3166 3131 3188 3044 2980 2756 2581 2263 1909 1520 1492 1393 1422 1274 1120 1020 949 907 875 823 806 814 861 982 863 638 535 551 310 0 0 0
842 954 970 828 884 1425 1706 1892 1914 2049 2150 2230 2213 2169 2024 1921 2073 2314 2470 2685 2922 3474 3544 3947 4046 3990 3925 3816 3695 3609 3550 3453 3352 3302 3213 3184 3210 3173 3190 3148 3057 2954 2996 3020 2987 2969 2973 2953 2952 2942 2931 2906 2852 2919 2982 3008 2934 2804 2262 1948 1895 1781 1564 1039 1147 1331 1138 1045 921 828 786 710 651 594 580 652 731 454 65 181 249 45 0 0 0
504 604 719 886 879 1526 1960 1848 1695 1665 1845 2137 2147 2062 1926 2078 2213 2465 2608 2782 3051 3495 3752 3742 3687 3674 3655 3628 3564 3522 3433 3305 3150 2991 2844 2714 2611 2658 2703 2787 2818 2818 2881 2770 2749 2793 2775 2752 2794 2685 2604 2467 2415 2311 2034 1911 1906 2177 2028 1870 1661 1554 1457 1489 1269 846 715 665 565 507 557 582 597 489 542 563 461 253 14 0 0 0 0 0 0
426 547 500 849 1052 731 1389 1745 1660 1414 1415 1578 1808 2123 2137 2090 2064 2175 2176 2662 2996 3099 3226 3130 2936 2695 2401 2340 2518 2603 2562 2502 2420 2279 2140 2082 2054 2149 2279 2430 2534 2695 2753 2736 2781 2711 2712 2585 2553 2477 2504 2411 2051 1918 1872 1895 1878 1776 1632 1523 1392 1393 1254 958 870 889 994 807 740 649 597 614 530 464 378 172 0 0 0 0 0 0 0 0 0
269 172 408 388 679 710 613 654 641 771 902 848 842 1108 1292 1310 1407 1710 2331 2468 2825 2900 2826 2510 2117 1886 1796 1795 1776 1792 1805 1839 1839 1868 1900 1907 2021 2111 2323 2530 2635 2744 2757 2780 2690 2596 2562 2355 2354 2320 1918 1704 1662 1658 1583 1500 1410 1338 1259 1264 1214 1075 1054 930 852 395 140 0 0 92 0 0 0 0 0 0 0 0 0 0 0 0 0 0 0
269 326 375 458 387 471 646 809 920 988 913 986 1064 1152 1629 1922 2206 2438 2496 2502 2468 2236 1924 1925 2069 2054 1968 1850 1859 1900 1887 1873 1885 1855 1939 2010 2132 2196 2268 2305 2312 2364 2334 2218 2232 2376 2450 2474 2248 1685 1401 1364 1388 1384 1394 1312 1265 1241 1040 982 942 819 809 729 564 388 378 369 321 0 0 14 18 0 0 0 0 0 0 0 0 0 0 0 0
4 179 220 225 333 494 613 759 898 997 1220 1166 1422 1396 1192 1342 1455 1537 1619 1732 1888 1873 1898 2046 2157 2063 1950 1926 1907 1862 1828 1970 2022 2025 2098 2110 2118 2108 2071 2044 2131 2211 2238 2345 2368 2297 2369 2295 1841 1464 1431 1413 1401 1355 1288 1311 1215 1047 909 870 536 478 561 515 354 366 341 297 326 276 210 160 129 88 39 0 0 0 0 0 0 0 0 0 0
6 6 6 4 3 80 412 531 612 731 808 897 1248 1157 1022 1206 1329 1620 1896 1868 1730 1916 2059 2122 2076 2125 2136 2188 2271 2373 2300 2311 2295 2196 2159 2103 2204 2226 2212 2187 2183 2263 2240 2169 2016 1852 1555 1514 1401 1285 1238 1292 1275 1293 1320 1312 948 483 478 520 554 494 334 341 324 157 133 223 182 92 11 0 1 0 0 0 0 0 0 0 0 0 0 0 0
Wind_Speed
9 7 6 5 7 8 8 9 9 10 10 10 10 11 11 12 11 10 9 9 10 11 11 12 13 12 11 10 10 9 7 6 3 2 1 2 3 4 6 7 8 8 7 8 9 7 6 6 5 5 4 3 3 3 2 5 6 6 6 5 7 6 5 6 8 13 12 8 8 8 8 8 8 8 10 8 7 7 6 8 9 10 12 14 17
9 8 6 5 6 7 8 8 9 10 10 10 10 10 11 12 11 10 10 10 11 12 13 14 14 13 11 10 9 8 6 4 3 2 1 2 3 3 5 7 8 8 7 8 9 8 7 8 8 6 5 3 4 5 5 4 6 6 6 5 6 7 6 4 8 8 11 8 8 7 6 5 7 6 7 8 8 6 6 6 7 9 12 15 17
9 8 8 7 7 7 8 8 8 9 9 9 9 10 11 12 12 11 11 11 11 12 14 15 15 15 13 11 9 7 6 4 3 2 2 2 3 5 4 5 7 8 8 9 9 9 7 7 8 6 5 5 5 6 5 7 5 5 7 5 5 6 5 5 4 7 9 8 5 5 3 4 5 8 8 7 7 6 5 7 9 10 13 15 16
9 9 9 8 8 8 8 8 9 9 8 8 9 9 11 12 12 11 11 12 12 12 14 15 15 15 14 12 10 8 6 4 3 3 3 3 3 4 5 4 6 7 8 9 9 9 8 7 8 7 6 5 5 6 6 6 7 5 4 4 4 5 4 3 4 5 5 4 5 3 4 4 6 6 7 7 6 5 5 8 9 11 12 13 16
9 10 10 11 10 8 9 9 9 9 9 8 8 9 10 11 11 11 11 12 13 14 14 15 15 15 14 12 11 9 7 6 4 3 3 3 3 3 4 4 5 7 8 8 8 8 8 8 7 6 6 6 5 5 5 6 6 6 6 4 2 2 2 2 3 2 4 7 6 4 3 5 5 6 6 7 5 3 4 8 9 10 10 12 14
9 9 10 11 10 10 9 9 10 10 9 8 8 9 9 10 10 10 10 11 12 14 15 15 15 15 14 12 11 10 8 7 5 4 3 3 3 3 3 3 5 6 7 8 8 8 8 7 6 5 5 5 5 4 3 4 3 3 4 4 4 3 3 4 4 4 4 4 4 6 5 5 7 5 5 4 3 3 3 5 6 8 10 10 11
8 8 10 11 10 10 9 8 9 9 9 8 9 9 9 10 11 10 10 9 10 12 14 15 15 16 14 13 11 10 10 8 6 5 4 4 4 4 3 4 3 4 6 8 8 8 8 7 6 6 5 5 4 3 2 2 2 2 3 3 2 0 1 2 3 3 3 4 4 2 3 3 1 5 5 4 2 1 2 1 4 8 11 12 8
7 7 8 9 9 10 9 8 9 9 9 9 9 9 9 10 11 11 10 9 8 11 13 14 15 16 15 13 11 11 10 10 8 6 5 5 6 5 4 4 5 4 4 6 7 7 8 7 6 6 6 5 4 3 3 2 2 0 1 1 1 1 1 1 3 3 4 4 3 2 3 2 4 4 7 9 7 5 3 6 6 7 8 11 12
7 6 6 7 8 9 9 8 8 9 9 9 9 9 9 9 11 12 11 9 7 9 12 14 15 15 15 13 11 10 10 10 11 8 7 6 6 5 5 5 4 4 4 4 5 6 7 7 6 6 7 8 9 6 5 5 4 3 2 3 2 3 3 3 3 3 3 4 4 5 5 3 3 5 8 7 5 4 7 9 8 7 8 9 9
9 7 5 4 4 6 9 9 9 9 9 10 9 9 9 9 10 11 11 10 9 9 11 13 13 15 16 14 12 10 9 10 10 9 8 7 6 5 5 5 4 3 3 4 4 5 7 6 7 12 12 11 11 11 10 9 8 6 4 5 4 5 5 5 5 4 4 4 4 6 6 3 3 4 4 6 8 11 11 11 10 8 10 10 10
11 8 6 7 6 5 7 9 10 11 10 9 10 10 9 9 9 11 12 11 10 9 11 13 13 14 15 15 13 10 9 10 10 11 9 7 6 6 6 5 4 4 4 4 4 5 5 6 5 7 10 11 11 13 12 11 10 10 9 8 8 8 7 7 6 7 7 6 7 8 7 4 3 6 6 7 10 11 11 11 11 12 13 12 9
12 10 9 11 9 6 6 8 9 11 11 11 10 10 10 9 8 10 12 12 11 10 10 12 14 14 14 15 13 11 10 11 13 12 11 8 7 8 8 7 5 4 4 4 5 4 4 4 5 5 6 8 9 9 10 11 11 10 9 8 8 9 11 11 9 9 9 9 10 9 10 7 7 9 8 10 10 11 12 13 14 14 14 13 13
12 11 11 12 12 9 7 7 8 10 11 12 11 10 10 10 9 10 12 13 13 11 9 12 13 15 15 15 14 12 11 12 15 14 12 11 8 8 10 9 8 5 4 4 5 6 6 6 5 6 5 8 9 11 10 9 9 11 11 10 8 8 9 10 11 11 13 11 10 9 9 9 7 7 11 13 14 12 13 14 16 17 16 14 14
13 12 12 12 13 12 10 8 8 8 10 12 12 11 10 10 9 10 11 13 13 11 10 11 13 15 15 15 15 14 13 12 15 15 13 12 11 10 10 9 8 7 5 5 5 7 8 8 7 7 7 6 7 10 12 12 10 9 8 8 8 6 6 7 8 8 11 11 12 10 8 16 10 8 9 14 13 12 13 14 17 17 16 16 16
16 13 12 13 14 14 12 10 9 9 9 11 12 12 11 10 10 11 12 13 14 13 12 11 12 14 16 16 17 16 14 14 16 16 15 14 12 13 12 12 9 7 6 6 7 7 8 9 9 8 8 7 7 10 11 11 10 9 9 9 9 9 10 10 12 13 13 12 11 10 9 13 14 11 10 13 13 13 17 18 18 19 18 19 18
17 15 12 12 13 15 14 12 11 11 10 10 11 12 12 11 11 11 12 13 14 14 13 12 12 13 15 17 17 16 16 18 18 17 17 15 16 16 15 14 11 9 7 8 8 9 9 9 9 9 9 8 6 8 11 13 13 12 11 9 9 11 11 11 11 13 14 14 13 12 12 12 14 15 15 15 15 18 19 20 21 21 21 20 18
17 15 13 13 13 14 14 14 13 12 12 11 10 11 12 12 11 12 11 13 15 15 15 14 13 13 14 15 17 17 17 19 20 19 18 18 20 17 16 16 15 12 10 9 9 10 10 9 9 9 9 9 9 10 10 13 12 13 13 12 11 11 11 13 12 12 12 12 13 12 11 11 11 13 17 20 19 20 22 20 17 22 22 20 19
16 15 13 13 13 14 15 14 14 14 13 11 10 10 12 12 12 12 11 12 14 15 17 16 15 13 13 14 15 17 17 19 21 20 19 20 21 18 18 17 15 14 12 12 12 12 12 9 10 10 10 10 11 12 11 13 11 13 14 13 13 12 11 14 15 14 11 10 10 11 11 11 13 17 18 18 20 23 22 19 22 25 22 22 21
16 14 13 14 15 15 15 15 14 14 13 12 12 11 11 12 13 13 11 11 13 16 17 17 16 15 13 12 14 17 18 20 20 21 21 22 21 20 20 18 16 16 15 12 11 13 13 12 9 10 11 11 13 14 14 15 12 13 14 15 14 13 12 16 14 16 18 18 15 16 16 16 18 19 17 16 17 20 21 20 24 25 22 22 22
17 17 18 17 16 16 15 14 13 13 14 14 14 13 12 12 13 14 13 12 13 15 16 17 17 16 15 13 13 14 17 22 19 19 22 23 23 22 22 20 17 15 16 15 15 14 13 12 11 8 8 9 13 16 15 17 14 12 14 14 13 12 15 16 16 18 17 17 16 18 17 20 22 21 20 18 16 19 21 22 24 25 25 24 25
21 22 22 19 17 15 15 14 13 13 16 17 18 17 15 13 13 13 14 14 13 14 14 16 17 16 15 14 13 14 14 18 19 20 21 23 22 23 23 19 17 17 17 18 18 18 16 14 14 11 10 10 11 12 14 16 15 13 14 13 14 14 18 16 16 16 17 18 18 20 21 22 23 24 23 20 18 19 24 24 25 25 27 28 29
26 25 25 22 20 17 16 15 15 16 18 20 20 18 17 16 15 14 14 14 14 13 15 16 16 17 16 14 13 13 14 15 21 18 21 22 23 21 22 20 18 18 18 19 21 20 18 17 16 13 12 12 12 12 13 15 16 14 13 13 13 19 18 17 19 21 22 21 21 22 23 24 25 25 25 21 19 19 26 28 27 28 29 31 32
27 26 25 25 23 20 18 18 18 18 19 20 21 19 19 19 18 16 14 14 14 14 14 15 16 17 17 15 14 13 15 15 21 21 19 21 21 20 18 20 18 19 19 18 21 20 20 18 16 13 14 13 13 13 13 14 16 14 13 13 16 20 19 20 21 21 22 22 22 21 22 24 25 26 26 28 29 31 34 33 32 32 32 32 32
28 27 26 25 25 23 21 21 20 19 20 21 21 21 20 19 20 19 16 15 16 15 15 16 16 17 17 16 16 15 15 16 18 22 21 19 20 20 16 16 22 20 18 20 22 21 21 20 18 15 16 16 16 15 14 16 17 15 14 14 18 20 21 21 21 21 21 21 21 23 24 25 27 27 27 31 32 34 36 35 34 33 33 33 33
28 27 27 27 27 26 25 24 23 21 21 22 22 21 20 20 20 20 19 18 17 16 15 16 16 16 17 17 17 17 16 17 19 19 22 20 19 19 17 15 17 19 20 20 22 23 21 19 18 18 18 18 18 17 16 15 15 15 15 17 20 21 21 22 22 23 21 20 22 25 26 27 27 27 29 31 33 34 36 34 33 33 34 36 36
28 28 28 29 29 30 29 27 25 24 24 23 22 23 22 21 20 22 21 20 19 17 17 16 16 17 17 17 18 19 18 18 18 20 19 20 19 17 17 16 16 18 18 20 19 21 23 23 23 22 21 20 20 18 17 15 15 14 16 20 20 20 22 23 24 23 21 22 24 24 27 29 29 29 30 33 35 35 34 34 35 34 37 39 37
30 30 29 30 31 31 31 29 28 27 27 27 25 26 25 24 23 22 22 20 19 18 18 18 17 17 17 18 19 20 20 18 18 19 22 23 22 20 18 17 16 19 22 24 27 30 32 31 30 30 29 25 21 19 17 17 20 20 22 22 21 21 22 23 23 23 23 24 25 27 29 30 32 33 33 34 34 31 33 36 38 37 39 41 40
30 30 29 32 32 32 31 30 30 30 30 30 29 27 26 26 24 21 20 21 20 19 19 19 18 18 18 20 22 22 21 19 17 18 21 23 22 23 22 21 23 22 21 24 27 30 31 32 32 28 25 23 20 21 21 22 20 21 21 22 22 23 23 22 24 26 26 27 27 29 31 34 33 33 32 32 31 32 34 37 39 39 39 41 40
31 30 32 34 34 34 33 33 33 33 34 34 32 30 28 28 26 23 20 21 20 20 20 19 20 20 20 21 22 22 20 16 14 18 22 23 23 23 23 21 22 22 19 21 27 30 30 27 23 22 19 18 19 19 19 20 19 20 20 21 22 23 25 26 25 25 25 27 26 27 31 33 32 30 31 30 31 33 34 37 38 40 37 38 37
32 31 33 35 36 36 36 36 37 38 38 37 36 35 34 32 29 26 23 18 18 18 20 21 22 23 22 21 21 19 17 15 20 22 21 22 21 22 20 20 20 20 19 20 23 23 23 20 17 17 17 17 16 16 16 17 19 20 19 21 22 22 23 23 24 24 25 25 26 29 30 30 29 28 30 32 32 33 37 41 39 37 37 36 34
32 32 34 36 37 39 40 41 43 44 42 40 39 39 39 43 52 45 33 22 21 19 20 19 21 21 21 21 19 14 13 17 24 20 20 20 20 19 20 20 20 18 21 26 20 18 17 16 15 15 16 16 15 15 16 17 17 19 20 21 21 21 22 22 21 20 21 23 26 28 30 29 28 29 32 34 36 36 39 39 40 38 38 37 35
31 31 34 37 40 43 45 46 47 47 46 44 42 43 43 42 43 46 44 34 22 24 23 22 23 21 18 19 23 21 18 21 22 20 19 20 19 19 19 20 18 18 21 26 18 14 13 13 14 14 15 14 14 15 16 17 18 19 21 21 21 22 23 22 21 21 22 24 26 28 29 30 31 31 33 34 37 39 39 39 38 41 40 40 37
33 38 49 53 55 53 50 49 49 49 48 46 43 43 42 39 37 36 39 45 44 37 32 27 23 20 19 19 21 22 22 20 20 21 20 19 19 18 18 18 17 20 29 22 15 13 12 12 13 14 15 14 16 17 17 17 19 20 21 22 23 25 25 24 26 26 27 27 29 31 32 34 34 35 37 38 41 41 42 40 41 43 44 42 41
52 53 50 50 51 51 55 60 61 59 55 49 44 41 38 38 38 40 40 38 38 40 42 41 37 32 30 27 22 21 20 18 19 18 18 18 17 15 18 23 27 23 21 16 14 12 13 12 13 15 16 17 18 20 20 21 23 24 25 25 27 29 28 29 30 30 31 32 34 36 37 38 40 42 40 41 42 43 43 41 43 43 42 43 45
49 49 47 46 43 42 44 46 48 48 50 51 50 46 41 41 43 41 37 34 32 32 31 34 40 42 37 35 33 25 19 19 19 18 17 16 19 28 34 31 26 23 18 16 15 14 15 16 16 18 19 20 21 23 24 25 28 29 32 33 33 33 32 32 31 34 35 36 39 40 41 43 43 44 44 43 42 41 40 39 39 39 40 42 43
48 47 47 49 49 47 44 42 41 41 44 47 49 50 50 49 44 41 39 37 35 36 37 37 36 39 43 43 39 35 31 26 22 21 22 26 30 32 25 22 21 19 17 17 17 18 20 21 22 22 22 22 24 26 28 31 33 34 39 41 39 36 34 33 35 36 38 41 42 42 42 43 44 46 45 43 41 40 39 38 37 36 37 38 38
50 50 51 51 47 44 44 43 44 45 47 48 48 49 49 48 45 41 39 38 36 35 37 37 36 37 38 36 36 38 37 36 34 31 27 26 27 24 21 22 21 22 20 20 21 23 24 24 25 25 27 26 27 29 32 39 50 56 55 46 39 39 38 38 38 41 43 44 43 42 42 42 43 44 44 41 37 37 38 37 36 36 36 36 37
52 52 51 51 49 46 43 41 42 45 47 47 47 47 49 52 48 44 39 35 34 36 36 33 31 30 29 29 29 30 35 38 41 40 36 33 26 24 25 24 25 25 24 24 25 25 27 29 30 30 30 30 30 34 41 50 54 56 49 41 40 42 45 46 47 47 47 46 43 42 43 41 41 42 41 39 37 37 32 30 33 35 35 38 39
53 56 56 53 52 49 44 42 43 45 46 46 47 45 46 50 52 46 39 35 33 34 33 32 30 28 29 30 32 29 33 32 30 29 29 28 28 27 30 30 30 30 29 29 30 31 32 34 36 38 40 41 41 44 48 50 55 53 49 46 42 44 48 49 49 48 48 43 42 42 44 44 43 40 38 37 35 33 31 32 34 37 39 39 39
57 57 57 57 53 50 45 43 43 44 44 45 46 46 44 45 48 45 38 34 32 32 31 30 29 30 31 29 30 29 31 31 31 31 31 32 31 33 36 35 35 34 34 34 35 37 40 41 42 43 44 45 45 45 48 50 52 54 55 50 47 49 50 49 47 45 45 46 46 45 46 45 43 39 37 35 35 35 35 36 37 38 40 42 41
60 61 63 62 58 51 49 45 44 44 43 43 45 46 46 46 47 47 44 39 35 33 33 33 34 33 33 32 32 32 34 34 35 35 35 35 36 38 38 39 40 40 40 42 43 43 45 46 46 47 48 49 48 49 49 50 51 53 56 55 51 50 50 50 49 46 47 47 46 46 45 43 41 39 37 35 39 39 39 39 42 42 43 43 43
64 66 67 64 62 57 52 48 44 44 44 44 46 47 47 48 49 50 50 44 39 37 38 38 37 37 38 39 37 40 41 40 40 40 40 40 41 42 42 43 44 45 46 47 48 49 50 51 51 52 53 52 52 52 52 52 53 56 58 58 55 53 51 50 49 49 48 47 44 43 41 41 41 40 40 39 38 38 40 41 42 44 44 45 45
66 67 66 64 63 59 55 50 48 47 47 49 51 53 54 54 52 50 48 46 38 36 38 39 39 40 42 42 45 49 46 43 43 44 44 44 45 47 48 49 49 51 52 53 53 54 55 56 56 55 55 55 54 53 53 53 53 56 58 60 59 57 54 50 48 47 48 46 45 43 42 43 43 42 43 42 43 43 43 44 45 47 46 46 47
66 69 69 67 63 58 55 53 53 51 50 52 55 57 58 59 58 54 51 48 42 39 40 41 42 44 46 47 49 48 46 46 46 46 48 48 49 49 49 49 50 51 53 54 54 55 56 57 56 56 56 56 55 55 55 54 56 58 59 60 59 58 57 54 49 47 48 47 46 46 46 45 44 44 45 45 47 50 50 50 49 49 nan nan nan
66 67 69 68 62 55 54 54 55 54 53 52 55 59 60 61 58 55 53 51 48 46 45 44 46 48 49 49 49 49 48 48 49 48 48 47 47 46 46 47 48 49 51 52 53 55 56 57 57 58 58 56 56 56 55 55 55 56 55 57 57 57 55 53 48 46 48 51 52 52 50 50 48 48 48 50 53 53 nan 52 53 nan nan nan nan
70 69 70 67 60 53 50 51 56 58 57 54 54 57 59 59 60 59 58 56 53 50 49 49 50 51 50 48 48 49 49 48 48 47 47 46 46 46 46 46 48 50 52 53 55 57 56 57 57 58 58 56 55 54 53 54 53 52 52 54 54 52 50 50 49 50 51 52 53 52 53 53 53 52 54 55 56 57 nan nan nan nan nan nan nan
70 72 69 65 61 57 51 48 52 58 59 56 55 56 58 60 61 61 59 55 52 50 51 51 50 50 49 48 48 48 48 48 47 48 49 49 48 48 48 49 50 51 51 52 54 54 55 55 54 54 55 53 51 51 51 51 49 49 50 50 49 50 49 49 51 51 52 52 53 55 55 55 56 56 58 60 nan nan nan nan nan nan nan nan nan
60 67 67 63 62 61 57 51 50 54 54 54 52 52 55 57 58 55 50 48 48 48 48 49 50 49 50 50 49 49 49 49 50 51 51 50 50 50 51 51 52 52 52 53 54 53 52 52 51 49 49 50 50 49 50 51 49 49 48 48 48 48 51 53 55 54 56 nan nan nan nan nan nan nan nan nan nan nan nan nan nan nan nan nan nan
57 61 64 66 65 64 59 56 51 48 48 50 51 51 50 51 53 51 46 44 45 45 46 48 49 49 50 50 50 51 52 53 53 52 52 51 51 52 53 54 53 52 51 51 51 52 51 50 49 49 50 49 51 50 48 48 48 48 49 49 50 55 59 59 57 55 59 60 60 nan nan nan nan nan nan nan nan nan nan nan nan nan nan nan nan
nan 60 60 62 65 66 62 59 58 55 53 52 53 53 52 53 56 56 52 48 46 47 49 51 52 51 52 53 55 55 56 55 54 53 52 52 53 54 55 55 54 51 50 49 50 50 49 49 51 51 52 52 51 51 50 49 49 50 50 51 56 60 61 63 63 62 61 60 63 63 65 66 66 nan nan nan nan nan nan nan nan nan nan nan nan
nan nan nan nan nan nan 63 62 61 61 61 60 58 57 58 60 60 60 57 54 52 51 52 52 53 54 55 56 57 58 58 57 55 54 54 54 55 56 56 56 54 51 49 49 49 49 49 49 50 51 51 52 53 53 52 52 52 53 55 58 60 60 62 61 61 63 66 65 64 nan nan nan nan nan nan nan nan nan nan nan nan nan nan nan nan
Wind_Direction
343 339 313 303 290 291 289 279 282 275 277 282 290 295 294 301 306 305 303 303 296 304 307 311 309 311 315 319 322 319 316 320 319 342 334 21 50 58 62 71 72 75 65 63 63 64 60 64 57 47 47 54 75 90 72 59 69 60 70 73 76 82 76 86 93 101 119 113 105 105 106 111 102 83 96 94 93 87 72 44 26 17 22 23 25
354 342 333 315 311 292 291 283 283 279 289 289 292 291 292 294 299 293 304 310 297 303 309 309 309 314 313 314 313 309 309 301 299 296 336 17 55 77 64 57 66 72 80 76 70 66 56 52 61 68 69 64 69 88 89 81 70 78 77 72 81 88 84 77 89 98 106 137 130 120 116 92 95 95 90 106 107 91 74 63 45 24 27 25 24
358 352 349 336 330 299 289 288 287 292 300 292 297 293 289 289 291 299 299 299 300 294 303 308 313 316 317 311 303 298 293 288 262 280 317 353 35 70 76 58 59 63 67 71 71 73 68 57 55 56 69 72 78 78 86 89 86 69 79 89 89 97 102 86 99 107 112 123 115 124 121 127 87 107 108 97 88 76 67 56 47 32 21 21 24
357 1 0 357 343 322 313 305 308 308 310 295 300 292 286 285 286 298 297 295 300 289 293 302 307 313 318 312 304 286 281 275 271 281 316 336 16 46 69 66 58 60 59 63 66 69 67 59 61 52 50 57 76 73 78 88 95 96 82 79 72 77 91 100 93 110 129 142 164 151 140 125 120 114 112 108 98 86 50 50 36 27 22 20 26
352 4 7 7 357 343 335 324 321 320 315 297 303 295 289 287 285 298 299 300 302 293 286 292 299 307 314 314 309 292 284 283 284 280 284 313 350 18 49 68 61 54 55 56 57 58 62 58 56 55 48 49 70 74 71 74 81 92 106 107 77 68 116 119 119 155 157 152 161 174 148 138 135 129 120 119 116 84 41 34 28 18 11 11 13
340 358 10 13 4 356 341 329 328 325 318 307 306 299 291 290 291 292 302 306 305 300 294 290 294 302 310 313 310 299 278 275 282 283 290 295 309 342 21 57 64 53 48 48 48 47 52 54 48 42 49 41 54 65 66 59 69 75 85 98 105 141 148 154 169 164 174 163 183 168 182 142 153 139 135 147 121 96 57 25 3 1 349 343 353
326 344 2 15 11 2 344 329 319 320 317 309 295 295 297 295 297 297 298 306 310 308 300 297 291 296 305 312 311 302 280 270 270 273 273 281 300 316 353 35 65 64 54 41 37 35 38 40 33 23 29 39 45 43 31 53 45 67 61 72 105 213 199 188 216 212 213 208 202 207 162 165 151 142 168 192 202 338 34 43 341 333 324 319 335
324 331 344 9 14 6 350 328 316 313 311 306 301 302 302 297 298 295 295 309 309 313 307 302 294 293 299 309 313 301 285 267 262 263 260 272 284 303 330 1 31 57 59 46 35 28 24 22 20 9 5 6 14 20 336 335 282 324 47 329 355 338 30 197 215 220 210 219 228 195 249 217 211 208 204 209 204 211 277 311 317 317 317 317 325
312 317 328 1 9 2 351 335 315 302 302 306 306 304 303 299 296 296 298 305 298 304 304 300 296 295 294 301 309 305 290 272 258 257 257 263 274 300 322 335 355 25 42 32 23 18 14 13 13 6 353 1 6 357 348 336 291 292 252 272 286 299 287 266 266 248 233 243 219 241 237 216 205 204 197 209 227 275 273 279 286 304 312 300 310
298 301 312 333 337 343 346 341 331 315 303 303 303 302 301 296 296 300 302 306 302 289 294 296 296 297 295 296 301 303 292 267 270 296 284 262 269 275 288 304 320 341 4 16 15 11 10 2 1 14 12 7 1 360 3 2 351 321 299 283 291 288 285 282 282 284 275 260 258 260 250 248 233 245 239 243 251 255 257 260 265 282 292 302 311
282 285 282 278 284 307 330 340 339 334 319 303 293 293 298 293 294 300 301 303 306 287 282 296 295 291 293 292 298 298 291 276 299 293 299 309 272 260 273 281 288 297 307 328 355 360 3 356 345 357 359 360 359 5 6 5 357 354 351 336 315 300 285 291 291 289 289 282 271 267 271 266 269 272 274 266 257 257 269 277 282 282 289 294 292
272 275 270 272 276 292 309 327 340 339 328 318 303 290 288 294 294 298 300 303 295 287 279 289 291 288 285 288 293 293 290 300 305 300 298 301 288 263 260 263 268 282 291 307 316 321 332 328 323 326 319 320 332 346 2 8 0 353 355 353 340 330 314 302 299 288 285 284 277 280 273 282 269 272 272 266 259 261 268 271 281 286 291 300 304
264 270 271 277 278 276 286 310 331 336 333 324 309 297 290 290 291 292 305 300 292 294 286 274 284 286 285 287 288 287 281 303 305 307 300 294 298 278 251 259 264 275 294 311 302 298 295 294 296 295 314 4 335 325 332 350 3 3 355 355 347 322 311 311 302 296 289 286 286 281 296 285 273 278 284 279 277 273 273 277 285 288 295 301 306
260 271 270 277 277 273 276 294 318 327 322 319 316 316 308 297 290 279 283 290 296 296 292 277 274 283 285 284 281 279 280 292 304 307 302 294 289 271 243 255 255 261 287 305 301 293 291 295 297 293 289 289 293 312 320 334 339 339 323 294 281 291 305 305 298 291 285 289 288 297 304 294 305 293 288 281 279 283 281 285 287 289 294 302 302
255 262 269 275 277 275 279 288 301 307 312 314 317 325 324 306 295 280 276 289 297 296 294 284 271 277 282 281 276 276 272 292 294 300 301 295 285 264 240 240 238 239 257 283 298 301 290 290 291 298 301 300 296 297 306 316 320 325 321 310 296 284 280 280 282 283 282 282 290 304 311 304 310 310 298 288 287 290 290 289 290 292 294 292 290
257 262 265 274 281 279 280 279 286 295 301 306 317 326 327 321 307 287 275 276 284 287 285 284 276 271 276 281 281 279 274 291 291 294 299 295 286 251 238 235 233 230 235 256 284 293 294 292 287 291 297 301 327 342 317 307 314 318 320 312 294 279 274 285 299 295 290 289 292 298 303 312 319 311 299 294 294 287 283 280 280 281 279 284 297
260 264 265 272 281 281 279 277 278 287 293 300 315 321 321 322 311 291 284 277 281 288 290 288 280 275 272 275 282 277 272 285 294 293 294 298 277 254 243 232 229 228 228 244 271 286 292 292 290 289 290 294 317 337 342 317 306 316 317 316 306 289 277 272 296 319 319 318 320 318 320 328 316 301 302 298 295 289 285 281 286 286 290 293 298
257 264 267 269 277 281 278 274 273 276 282 299 308 307 310 308 310 298 296 286 285 288 287 284 283 283 283 275 276 274 271 278 297 293 294 293 286 269 252 240 229 225 224 233 253 269 278 307 308 297 295 296 315 324 330 311 303 310 311 315 312 302 284 274 272 285 320 327 313 302 292 289 294 302 303 306 305 292 293 298 293 294 302 302 304
253 260 263 261 264 271 273 273 272 273 279 288 289 294 303 306 302 298 297 290 282 277 280 282 282 282 287 286 283 275 267 271 293 295 294 291 286 268 263 251 238 227 228 232 251 263 268 273 290 293 294 302 317 321 324 307 297 299 304 306 313 309 300 283 278 272 271 272 274 279 279 288 289 291 296 312 317 305 300 302 295 300 307 307 305
246 244 251 255 258 266 269 271 270 274 275 273 274 277 276 281 295 300 297 290 281 274 277 280 286 282 283 287 284 278 265 258 275 294 294 291 294 274 263 261 251 239 233 242 255 261 267 272 282 290 300 306 312 317 318 317 303 292 289 302 305 314 293 282 275 273 267 273 276 284 287 283 283 284 287 290 296 301 303 298 298 303 305 304 304
237 245 252 256 257 265 267 269 270 266 265 265 266 267 271 281 288 294 295 288 282 274 280 279 281 280 278 281 282 278 272 263 264 289 287 288 291 284 265 268 263 249 240 245 256 264 267 275 278 296 312 309 308 313 314 317 315 295 292 295 305 297 289 286 277 276 267 268 273 277 281 280 281 282 284 286 292 291 291 292 296 300 300 298 298
238 245 254 258 258 260 266 264 262 255 258 261 264 269 272 276 277 284 283 283 288 283 270 272 276 276 273 276 276 276 278 285 261 276 287 287 287 292 267 268 271 259 248 244 254 260 266 272 277 296 319 314 307 310 316 313 320 298 296 305 303 298 295 289 284 275 269 267 267 271 274 277 279 281 280 281 276 284 284 285 285 285 288 295 299
239 246 251 256 257 259 261 268 262 252 254 262 265 267 268 274 276 276 280 282 283 283 273 268 271 272 271 267 266 269 268 273 284 272 281 286 289 288 288 272 280 266 256 254 260 262 264 270 277 295 302 307 306 308 311 318 302 300 315 311 304 308 297 288 284 281 272 267 264 264 266 270 272 274 274 273 269 270 273 276 279 282 284 288 294
236 245 251 257 259 258 262 266 266 260 261 260 262 264 268 272 272 270 274 276 274 277 271 265 267 271 273 267 263 261 260 261 274 287 278 290 287 293 290 280 277 266 261 254 258 262 264 269 275 288 293 302 309 311 313 310 304 318 318 317 304 296 287 285 284 282 274 268 265 259 259 260 263 265 270 275 276 274 273 275 278 282 289 291 292
236 245 252 256 260 260 261 262 266 264 261 262 262 264 266 269 269 269 271 273 272 271 273 270 268 268 267 269 265 261 259 257 258 273 289 288 290 290 291 286 271 276 262 252 255 260 268 279 278 283 290 298 309 315 312 318 325 320 318 310 294 281 284 283 281 278 274 269 264 259 258 259 263 265 274 275 273 272 274 275 280 283 287 289 291
236 245 249 253 259 261 260 261 264 265 264 259 262 262 263 263 265 265 266 269 269 269 271 274 270 266 266 265 264 263 260 255 255 259 264 276 277 288 294 290 276 267 269 259 267 268 269 270 270 267 270 273 280 284 289 295 309 312 296 290 282 280 280 280 277 277 273 267 263 261 259 258 261 267 271 272 273 277 280 281 282 283 287 288 288
235 241 247 251 255 257 260 257 257 260 261 257 256 258 259 260 261 262 266 272 272 270 271 274 273 270 266 261 259 260 260 257 252 252 257 256 253 255 257 254 259 252 240 240 247 251 254 256 263 269 270 278 281 279 276 273 274 279 281 283 283 280 277 276 276 274 271 266 262 260 260 263 262 265 269 273 279 286 289 290 291 294 293 294 295
236 241 249 250 251 254 257 264 263 254 258 259 256 256 259 262 263 265 273 280 277 272 272 274 277 276 267 258 253 254 256 255 253 255 255 255 253 252 252 250 250 248 247 246 249 251 255 256 262 266 267 267 270 267 270 272 278 280 283 285 285 281 278 275 269 266 266 269 266 265 265 264 266 269 274 282 292 296 297 295 295 295 294 292 292
238 241 245 248 250 251 252 253 252 252 255 258 258 257 259 261 263 261 265 265 267 270 271 271 276 273 267 259 257 254 254 254 251 257 262 267 267 259 254 254 251 248 256 264 255 252 256 261 264 264 266 267 265 266 269 272 274 279 283 283 283 281 278 275 275 273 272 272 273 273 271 270 272 278 285 293 297 295 290 286 283 286 287 288 292
240 240 241 244 247 249 248 249 251 252 252 254 256 253 247 249 259 259 257 266 277 274 264 266 270 268 263 258 259 262 258 250 256 268 274 280 285 291 285 279 276 268 266 276 268 263 263 263 262 261 260 260 263 265 271 274 275 279 282 284 285 282 281 278 275 272 274 277 278 277 278 280 283 288 291 288 284 283 282 282 281 283 285 287 291
240 238 240 241 245 246 245 246 248 249 249 250 251 252 248 241 236 233 228 248 270 267 271 269 266 267 262 255 254 258 255 255 266 278 280 284 286 285 282 283 286 286 279 267 256 260 258 257 254 254 255 256 261 268 272 276 280 281 284 285 285 286 285 283 282 280 282 283 285 285 287 289 291 286 282 283 284 279 277 279 285 288 288 289 292
236 237 239 239 240 240 240 242 244 245 244 244 245 247 249 249 242 236 233 226 243 275 271 271 270 269 264 255 247 238 239 253 265 269 274 276 281 283 280 283 287 289 282 285 271 259 250 252 250 251 255 257 263 266 270 274 278 281 281 283 284 283 285 287 289 293 292 292 292 291 292 292 289 288 286 284 284 285 287 290 294 295 295 295 299
224 228 227 226 226 226 230 235 238 239 241 242 241 245 248 251 254 251 238 235 238 243 249 252 257 264 263 255 256 255 249 247 262 271 276 279 282 284 287 288 288 275 261 257 251 247 242 244 248 251 259 264 268 270 272 276 275 277 279 280 280 282 286 290 291 293 295 297 296 295 294 294 295 290 287 290 293 293 294 296 297 297 298 302 297
230 232 235 239 241 236 229 222 220 223 224 229 232 237 241 247 250 248 248 246 244 243 242 243 240 239 233 231 236 254 261 264 263 270 278 279 280 283 273 250 247 264 278 267 255 244 245 248 251 253 258 264 268 271 274 276 275 273 274 274 274 277 284 284 287 292 293 296 295 294 295 296 296 297 297 296 297 296 296 296 297 298 299 297 294
234 242 240 240 242 244 250 253 252 249 242 232 219 216 224 236 242 246 250 256 259 261 257 245 234 230 236 232 229 230 246 261 265 266 268 270 262 255 250 244 244 228 227 231 249 250 252 255 256 257 260 265 270 275 276 276 275 273 272 273 272 274 277 283 287 291 293 292 291 294 296 298 298 298 296 294 293 293 294 296 298 299 296 293 291
235 242 245 240 234 229 231 238 248 252 255 256 251 236 219 217 222 235 243 249 252 252 247 241 235 231 235 230 229 233 236 238 242 251 255 255 259 263 247 241 244 247 252 252 252 252 253 256 259 263 267 268 269 273 276 276 277 275 270 269 269 272 278 283 286 287 286 285 286 288 289 291 293 295 295 294 295 297 298 299 298 297 296 294 293
232 236 243 246 244 241 238 238 239 239 240 245 248 251 245 231 216 221 231 240 246 249 249 244 240 234 230 228 229 231 234 238 239 240 248 262 273 261 247 251 249 251 251 253 253 255 259 261 266 268 268 269 272 273 275 270 265 262 259 263 274 281 281 281 280 278 277 277 279 283 287 290 294 296 295 294 294 295 295 296 294 296 295 296 293
233 233 236 240 244 244 243 243 245 247 247 247 247 245 243 238 227 216 218 227 241 247 248 245 241 241 238 231 227 227 237 240 241 237 235 236 239 234 238 244 249 255 259 257 259 261 261 262 264 268 270 271 272 271 271 274 278 276 279 282 277 275 276 273 274 273 270 268 275 284 290 292 290 288 288 292 292 290 290 294 295 297 296 295 292
229 232 237 242 242 244 244 245 245 246 248 250 250 249 244 241 233 224 215 215 227 239 243 243 239 235 233 233 234 237 241 236 237 240 243 243 244 238 243 246 248 249 253 257 260 261 262 264 264 264 263 265 268 269 274 277 280 284 282 278 280 277 270 263 262 266 276 284 290 293 291 288 286 287 288 290 291 289 285 287 292 294 293 293 293
226 230 233 239 244 244 244 245 247 248 250 251 250 249 244 237 235 234 224 216 217 232 238 239 235 233 234 237 239 238 239 242 242 244 246 248 247 239 242 249 251 254 258 260 262 263 263 263 264 265 266 267 269 271 274 280 284 287 288 289 286 282 282 283 283 284 287 289 291 292 290 287 285 286 286 288 289 285 281 283 288 288 286 288 288
226 229 231 231 230 236 240 240 241 244 246 248 248 248 242 232 226 229 227 216 212 221 229 231 230 232 236 239 240 238 243 245 246 247 249 252 250 248 249 250 254 255 255 258 259 261 263 264 264 265 264 265 267 269 270 271 274 277 280 278 279 283 283 283 285 284 281 280 283 286 286 285 284 284 287 284 281 282 282 284 287 287 286 285 286
224 228 230 230 229 230 231 233 236 242 242 243 246 246 241 231 223 222 227 221 210 215 223 227 229 230 238 246 238 238 241 242 244 247 248 249 251 252 253 254 254 256 257 258 260 261 261 261 261 261 263 263 265 266 268 270 272 273 274 274 274 273 274 277 280 280 281 281 281 283 283 283 282 280 280 282 285 284 285 287 286 285 284 285 287
224 228 230 231 231 231 230 229 229 233 237 240 242 240 236 231 226 223 225 228 224 221 222 228 230 232 234 236 243 244 243 244 246 247 248 250 252 253 254 254 255 256 257 257 258 259 260 259 259 259 259 259 259 260 263 265 267 269 271 273 274 274 273 272 272 274 278 279 282 280 280 280 280 280 281 280 282 283 283 286 287 286 286 285 286
226 228 228 229 228 228 228 230 232 231 230 232 238 240 237 232 227 222 219 222 224 224 224 225 231 234 236 237 239 243 246 248 249 250 251 251 252 253 254 255 256 257 257 257 257 258 260 262 262 262 261 261 261 262 262 264 266 268 269 270 270 270 270 270 271 272 274 274 277 279 279 280 280 278 276 275 275 276 279 281 282 283 nan nan nan
226 226 226 228 228 226 227 229 232 233 232 232 233 234 234 232 230 224 219 218 221 223 223 225 229 233 236 238 242 246 248 250 251 251 251 252 253 253 254 255 256 257 257 257 258 259 261 262 262 262 262 261 262 263 263 262 263 264 266 268 270 269 269 270 270 270 269 270 271 274 276 279 280 279 277 276 276 276 nan 280 281 nan nan nan nan
224 225 226 228 229 229 226 227 229 231 231 231 231 233 232 231 228 223 217 216 220 225 224 225 231 236 239 242 245 247 248 250 249 249 251 251 252 253 254 255 257 258 258 258 257 257 258 260 262 263 263 263 262 262 261 261 261 262 264 266 267 269 269 270 270 271 271 273 274 275 276 276 274 273 273 274 276 279 nan nan nan nan nan nan nan
219 222 224 227 230 230 229 227 227 227 227 229 232 233 232 230 229 224 218 218 222 225 226 228 233 238 240 243 244 244 245 246 248 250 252 253 253 254 254 254 255 257 256 255 254 255 256 258 260 262 263 264 262 260 258 258 260 261 262 263 264 265 267 269 271 273 274 275 277 277 277 276 276 276 277 279 nan nan nan nan nan nan nan nan nan
217 218 220 224 228 232 233 232 231 228 225 226 230 233 235 231 226 222 219 223 227 231 232 234 237 240 241 241 242 242 244 247 249 251 252 253 254 254 255 256 258 259 257 254 253 253 255 257 257 258 260 261 261 260 260 259 260 261 262 262 263 262 265 268 271 271 273 nan nan nan nan nan nan nan nan nan nan nan nan nan nan nan nan nan nan
222 222 223 224 227 230 231 234 232 229 225 224 228 233 235 230 223 220 225 232 234 233 233 236 238 239 240 241 242 244 246 247 249 249 251 253 254 255 257 259 260 261 260 257 255 255 255 255 256 257 258 259 261 261 261 261 261 261 262 262 261 261 263 265 270 271 273 275 276 nan nan nan nan nan nan nan nan nan nan nan nan nan nan nan nan
nan 228 228 227 227 229 231 232 233 233 230 230 232 233 232 230 227 228 233 237 236 233 233 234 236 238 240 242 244 246 248 249 250 251 252 253 254 256 258 260 261 261 261 261 258 257 256 257 256 257 258 259 260 262 262 263 263 263 264 264 262 262 263 264 265 266 271 275 276 278 279 280 281 nan nan nan nan nan nan nan nan nan nan nan nan
nan nan nan nan nan nan 229 231 231 231 231 233 235 236 235 233 230 232 237 240 240 238 237 237 238 239 240 243 246 249 251 252 253 253 254 255 256 257 258 259 260 260 260 260 259 257 256 256 256 257 259 260 261 262 263 264 264 265 264 262 262 263 264 266 269 268 270 274 276 nan nan nan nan nan nan nan nan nan nan nan nan nan nan nan nan